Regional Weather Roundup
Issued by NWS Austin/San Antonio, TX

Home | Current Version | Previous Version | Text Only | Print | Product List | Glossary On
Versions: 1 2 3 4 5 6 7 8 9 10 11 12 13 14 15 16 17 18 19 20 21 22 23 24 25 26 27 28 29 30 31 32 33 34 35 36 37 38 39 40 41 42 43 44 45 46 47 48 49 50
000
ASUS44 KEWX 202110
RWREWX
SOUTH TEXAS REGIONAL WEATHER ROUNDUP
NATIONAL WEATHER SERVICE AUSTIN/SAN ANTONIO TX
400 PM CDT WED SEP 20 2017

NOTE: "FAIR" INDICATED FEW OR NO CLOUDS BELOW 12,000 FEET WITH NO
SIGNIFICANT WEATHER AND/OR OBSTRUCTIONS TO VISIBILITY.

* - THESE STATIONS ARE NOT NWS OR FAA STATIONS...AND ARE NOT SUBJECT
    TO NWS AND FAA QUALITY CONTROL.

TXZ171-172-183>190-202200-
TEXAS HILL COUNTRY AND EDWARDS PLATEAU

CITY           SKY/WX    TMP DP  RH WIND       PRES   REMARKS
JUNCTION       SUNNY     96  65  35 SW8       29.85F HX  98
*LLANO         MOSUNNY   99  68  36 E9        29.86F HX 104
BURNET         SUNNY     94  69  44 S12G18    29.88F HX  99
*HORSESHOE BAY SUNNY     96  67  39 S10G20    29.86F HX 100
*KERRVILLE     MOSUNNY   94  73  49 S12       29.89F HX 103
*FREDERICKSBRG SUNNY     92  65  41 SW12G18   29.88F HX  94
*ROCKSPRINGS   NOT AVBL
*BOERNE STAGE  MOSUNNY   91  66  43 S9G17     29.88F HX  94
*CASTROVILLE   MOSUNNY   99  63  30 S12       29.84F HX 101
HONDO          PTSUNNY   99  69  37 SE9G16    29.83F HX 105
*UVALDE        MOSUNNY   96  70  41 S9        29.83F HX 102
DEL RIO        MOSUNNY   96  69  41 SE12      29.79F HX 102
LAUGHLIN AFB   PTSUNNY   97  66  36 S13       29.80F HX 100
CARRIZO SPRGS  MOSUNNY   99  70  39 SE12      29.78F HX 105
*EAGLE PASS    CLEAR     99  66  34 S9G16     29.80F HX 102
$$

TXZ173-191>194-202-209-217>225-228-202200-
CENTRAL AND SOUTH CENTRAL TEXAS

CITY           SKY/WX    TMP DP  RH WIND       PRES   REMARKS
GEORGETOWN     MOSUNNY   92  71  50 S14       29.87F HX  98
AUSTIN/BERGSTM MOSUNNY   94  71  47 S14       29.85F HX 101
AUSTIN/MABRY   MOSUNNY   95  71  45 S10G18    29.86F HX 102
*AUSTIN/EXEC   MOSUNNY   91  72  52 S13       29.86F HX  98
*LAGO VISTA    MOSUNNY   92  70  48 S12G21    29.89F HX  97
SAN MARCOS     MOSUNNY   93  73  52 S15       29.86F HX 102
NEW BRAUNFELS  MOSUNNY   95  72  47 S13G22    29.84F HX 103
RANDOLPH AFB   MOSUNNY   94  70  44 SE16      29.84F HX 100
PT SAN ANTONIO MOSUNNY   98  69  39 SE10G21   29.82F HX 104
SAN ANTONIO    MOSUNNY   96  68  39 SE15      29.84F HX 101
STINSON FIELD  MOSUNNY   98  69  38 SE8       29.81F HX 104
*LA GRANGE     PTSUNNY   95  75  52 SE7       29.84F HX 107
*GIDDINGS      MOSUNNY   91  70  50 S9        29.87F HX  97
*GONZALES      MOSUNNY   96  76  52 S8        29.84F HX 108
$$

TXZ163>164-176>182-195>201-210>213-226-227-235-202200-
SOUTHEAST TEXAS

CITY           SKY/WX    TMP DP  RH WIND       PRES   REMARKS
COLLEGE STN    MOSUNNY   94  72  48 S9        29.86F HX 102
*BRYAN         MOSUNNY   91  71  52 S10       29.87F HX  97
*CALDWELL      MOSUNNY   93  71  49 S12       29.87F HX 100
*CROCKETT      CLOUDY    91  73  55 S7        29.91F HX 100
*BRENHAM       MOSUNNY   94  72  48 SE9       29.86F HX 102
HUNTSVILLE     SUNNY     93  69  45 S9        29.88F HX  98
CONROE         MOSUNNY   91  71  51 SE8       29.88F HX  97
HOUSTON BUSH   PTSUNNY   90  76  63 S9        29.88F HX 101
HOUSTON HOBBY  CLOUDY    88  74  63 VRB3      29.89F THUNDER HX  96
*HOUSTON SW AP CLOUDY    90  77  65 S9        29.88F HX 102
PEARLAND       CLOUDY    90  76  63 S8        29.90F HX 101
HOUSTON HOOKS  CLOUDY    90  74  59 S9        29.88F HX  99
ELLINGTON FLD  PTSUNNY   82  73  74 E5        29.91F
SUGAR LAND     CLOUDY    90  74  59 E7        29.87F HX  99
*HOUSTON EXEC  CLOUDY    93  75  55 S13       29.88  HX 104
*CLEVELAND MUN CLOUDY    89  75  62 S9        29.91F HX  99
*WHARTON       MOSUNNY   90  73  57 SE13      29.88F HX  97
*COLUMBUS      FAIR      92  67  44 S9        29.87F HX  95
*EAGLE LAKE    MOCLDY    95  76  54 SW12      29.86F HX 108
$$

TXZ214>216-236>238-202200-
THE UPPER TEXAS COAST

CITY           SKY/WX    TMP DP  RH WIND       PRES   REMARKS
*ORANGE        CLOUDY    84  80  87 CALM      29.95S HX  98
PORT ARTHUR    CLOUDY    86  76  71 S9        29.91F HX  96
GALVESTON      PTSUNNY   90  79  70 S15       29.92F HX 106
ANGLETON       MOSUNNY   90  75  61 S13       29.89F HX 100
*BAY CITY      HAZE      90  76  63 S13       29.89F VSB 3/4 HX 102
PALACIOS       NOT AVBL
$$

TXZ229>234-239>247-202200-
TEXAS COASTAL BEND AND RIO GRANDE PLAINS

CITY           SKY/WX    TMP DP  RH WIND       PRES   REMARKS
VICTORIA       MOSUNNY   92  74  55 S15G23    29.86F HX 101
*BEEVILLE      PTSUNNY   96  63  33 SE13G20   29.83F HX  97
ROCKPORT       MOSUNNY   88  76  67 S16       29.85F HX  99
*PORT ARANSAS  NOT AVBL
*PORT LAVACA   MOSUNNY   89  74  60 S12       29.87F HX  97
*INGLESIDE     MOSUNNY   91  79  66 MISG      29.85F HX 107
CORPUS CHRISTI PTSUNNY   94  76  55 SE18      29.84F HX 106
CORPUS NAS     PTSUNNY   92  78  63 SE18G25   29.85F HX 107
*ROBSTOWN      MOSUNNY   93  74  54 SE14G22   29.83F HX 104
ALICE          PTSUNNY   97  71  42 SE17      29.80F HX 104
KINGSVILLE NAS PTSUNNY   95  79  59 SE18      29.82F HX 112
COTULLA        MOSUNNY  100  63  29 S13G20    29.78F HX 102
*FAITH RANCH   SUNNY    102  66  30 VRB3G15   29.79F HX 107
LAREDO         SUNNY    102  66  30 E10       29.79F HX 106
$$

TXZ248>255-202200-
DEEP SOUTH TEXAS

CITY           SKY/WX    TMP DP  RH WIND       PRES   REMARKS
BROWNSVILLE    MOSUNNY   91  76  61 SE17      29.84F HX 103
PORT ISABEL    MOSUNNY   93  78  61 SE20      29.83F HX 108
*SOUTH PADRE   NOT AVBL
HARLINGEN      PTSUNNY   97  75  49 S16       29.81F HX 109
*HEBBRONVILLE  MOSUNNY   96  61  31 SE8G18    29.82F HX  97
MCALLEN        MOSUNNY  100  69  36 SE15G28   29.80F HX 106
*WESLACO       PTSUNNY   97  71  43 S13G22    29.80F HX 104
FALFURRIAS     MOSUNNY  -38  32 100 SE8G20    29.80F WCI -60
EDINBURG       MOSUNNY  101  65  30 S15G21    29.80F HX 104
*ZAPATA        MOSUNNY  101  61  26 E6G17     29.78F HX 102
$$

TXZ213>215-236>238-242>244-246-247-251-254-255-202200-
CMAN STATIONS

STATION/POSITION TIME  TEMP    WIND        PRES    WAVE
                       AIR SEA DIR/SP/G            HT/PER
                 (UTC) (F)     (DEG/KT/KT) (MB)    (FT/S)
SABINE PASS      2048   85 85  160/ 12/ 16 1014.6
SEA RIM ST PARK  2000   85     170/ 11/ 13 1014.4
NORTH JETTY/GLS  2042      85  160/ 14/ 16 1012.5
EAGLE POINT      2048   85 86  180/ 15/ 16 1012.6
MORGANS POINT    2048   85 83  140/  7/ 11 1012.4
PORT O`CONNOR    2048   85 85  160/ 11/ 14 1011.5
MALAQUITE BEACH  2048   84 85  120/ 16/ 19 1010.4
BAFFIN BAY       2048   85 88  130/ 16/ 19 1010.7
PORT ISABEL      2048   86 85  130/ 15/ 17 1010.9
$$



USA.gov is the U.S. government's official web portal to all federal, state and local government web resources and services.